Printer-friendly version

IAU Minor Planet Center

Minor Planet Center

MPEC 2008-F59 : 2008 FS6

The following Minor Planet Electronic Circular may be linked-to from your own Web pages, but must not otherwise be redistributed electronically.


Read MPEC 2008-F58 Read MPEC 2008-F60


M.P.E.C. 2008-F59                                Issued 2008 Mar. 31, 17:07 UT

     The Minor Planet Electronic Circulars contain information on unusual
         minor planets and routine data on comets.  They are published
   on behalf of Commission 20 of the International Astronomical Union by the
          Minor Planet Center, Smithsonian Astrophysical Observatory,
                          Cambridge, MA 02138, U.S.A.

             Prepared using the Tamkin Foundation Computer Network

                              MPC@CFA.HARVARD.EDU
          URL http://www.cfa.harvard.edu/iau/mpc.html  ISSN 1523-6714

                                   2008 FS6

Observations:
     K08F06S* C2008 03 29.32432 14 32 38.78 -09 11 27.4          19.6 V EF059691
     K08F06S  C2008 03 29.34190 14 32 39.44 -09 12 03.8          19.7 V EF059691
     K08F06S  C2008 03 29.35948 14 32 40.07 -09 12 40.7          19.6 V EF059691
     K08F06S  C2008 03 29.44064 14 32 42.89 -09 15 28.4          20.1 V EF059291
     K08F06S  C2008 03 29.44455 14 32 43.07 -09 15 36.4          20.3 V EF059291
     K08F06S  C2008 03 29.44824 14 32 43.21 -09 15 43.9          20.1 V EF059291
     K08F06S  C2008 03 30.03031 14 33 16.43 -09 36 10.8          20.0 V EF059B21
     K08F06S  C2008 03 30.03318 14 33 16.52 -09 36 16.9          19.5 V EF059B21
     K08F06S  C2008 03 30.03603 14 33 16.64 -09 36 23.1          19.5 V EF059B21
     K08F06S  C2008 03 30.11578 14 33 19.48 -09 39 10.7                 EF059118
     K08F06S  C2008 03 30.12093 14 33 19.67 -09 39 21.2                 EF059118
     K08F06S  C2008 03 30.28001 14 33 31.69 -09 44 46.5          19.9 V EF059291
     K08F06S  C2008 03 30.28372 14 33 31.82 -09 44 54.3          19.7 V EF059291
     K08F06S  C2008 03 30.28483 14 33 31.86 -09 44 56.7          19.3 R EF059651
     K08F06S  C2008 03 30.28594 14 33 31.92 -09 44 58.8          19.4 R EF059651
     K08F06S  C2008 03 30.28744 14 33 31.98 -09 45 03.0          19.5 V EF059291
     K08F06S  C2008 03 30.28808 14 33 31.99 -09 45 03.6          19.4 R EF059651
     K08F06S  C2008 03 31.28481 14 34 24.25 -10 20 52.4          20.3 V EF059291
     K08F06S  C2008 03 31.28855 14 34 24.37 -10 21 00.5          20.1 V EF059291
     K08F06S  C2008 03 31.29227 14 34 24.50 -10 21 08.7          19.9 V EF059291

Observer details:
118 Modra.  Observers S. Gajdos, J. Vilagi.  0.6-m f/5.5 reflector + CCD.
291 LPL/Spacewatch II.  Observer T. H. Bressi.  1.8-m f/2.7 reflector + CCD.
651 Grasslands Observatory, Tucson.  Observer J. E. McGaha.  0.62-m f/5.1
    Newtonian reflector + CCD.
691 Steward Observatory, Kitt Peak.  Observer T. H. Bressi.  0.9-m f/3
    reflector + CCD.
B21 Gaisberg Observatory, Schaerding.  Observer R. Gierlinger.  0.6-m f/3.3
    Newtonian reflector + CCD.

Orbital elements:
2008 FS6                                                 Earth MOID = 0.1038 AU
Epoch 2008 May 14.0 TT = JDT 2454600.5                  MPC
M   2.05025              (2000.0)            P               Q
n   0.66882286     Peri.  209.63588     -0.63311227     +0.77337802
a   1.2949768      Node    21.13764     -0.69129002     -0.54603381
e   0.1470703      Incl.    5.16846     -0.34826278     -0.32207689
P   1.47           H   22.4           G   0.15           U   7
Residuals in seconds of arc
080329 691  0.2-  0.0     080330 B21  0.7+  0.2+    080330 651  0.6+  0.4+
080329 691  0.0   0.2+    080330 B21  0.8+  0.0     080330 291  0.1+  0.4-
080329 691  0.0   0.2-    080330 118  0.1+  0.2-    080330 651  0.4+  0.3+
080329 291  0.5-  0.1-    080330 118  0.1-  0.1+    080331 291  0.0   0.2-
080329 291  0.1+  0.1-    080330 291  0.1-  0.1+    080331 291  0.1-  0.0
080329 291  0.2+  0.0     080330 291  0.3-  0.3+    080331 291  0.1-  0.1+
080330 B21  1.0+  0.2+    080330 651  0.3+  0.1+

Ephemeris:
2008 FS6                 a,e,i = 1.29, 0.15, 5                   q = 1.1045
Date    TT    R. A. (2000) Decl.     Delta      r     Elong.  Phase     V
2008 03 25    14 28.28   -06 51.6    0.168    1.142   146.9    28.5    20.1
2008 04 04    14 37.27   -12 43.1    0.141    1.128   153.4    23.4    19.5
2008 04 14    14 42.40   -20 23.9    0.121    1.117   159.4    18.4    19.0
2008 04 24    14 44.02   -29 35.8    0.109    1.110   161.2    17.0    18.7
2008 05 04    14 42.84   -39 05.3    0.105    1.105   156.9    21.0    18.7
2008 05 14    14 41.39   -47 15.2    0.107    1.105   150.1    27.2    19.0
2008 05 24    14 43.95   -53 08.2    0.114    1.108   144.2    32.4    19.3
2008 06 03    14 53.55   -56 35.6    0.126    1.114   140.1    35.7    19.6
2008 06 13    15 11.87   -57 56.0    0.140    1.123   137.8    37.4    19.9
2008 06 23    15 37.42   -57 36.2    0.158    1.136   136.5    38.0    20.2
2008 07 03    16 06.68   -55 57.2    0.179    1.151   135.6    38.2    20.5
2008 07 13    16 37.23   -53 21.5    0.204    1.169   134.6    38.3    20.8
2008 07 23    17 07.26   -50 11.5    0.234    1.188   133.1    38.7    21.2
2008 08 02    17 35.92   -46 44.6    0.269    1.209   130.9    39.4    21.5
2008 08 12    18 03.39   -43 13.9    0.311    1.230   128.2    40.3    21.9

Gareth V. Williams           (C) Copyright 2008 MPC           M.P.E.C. 2008-F59

Read MPEC 2008-F58 Read MPEC 2008-F60


Our Web policy. Index to the CBAT/MPC/ICQ pages.


Valid HTML 4.01!